Location: Brabourne
(51.1333°N, 1.0000°E)
Time: 08:13:01
(UTC+00:00)

Cosmos 2369 Rocket - Pass Details

Date: 20 June 2021
Orbit: 828 x 854 km, 71.0° (Epoch: 02 August)

Event Time Altitude Azimuth Distance (km) Brightness Sun altitude
Rises 02:10:44 0° 318° (NW) 3,434 5.6 -9.9°
Reaches altitude 10° 02:14:15 10° 296° (WNW) 2,492 4.6 -9.6°
Maximum altitude 02:17:20 15° 263° (W) 2,145 4.0 -9.3°
Drops below altitude 10° 02:20:26 10° 230° (SW) 2,478 4.0 -9.1°
Enters shadow 02:20:27 10° 230° (SW) 2,481 4.0 -9.1°
